カタログに戻る

SL-12 DEB

LostHEO
NORAD 43542·DEBRIS·🇷🇺 Russia

打ち上げ Mar 1, 2010 から Baikonur Cosmodrome

Loading…

次のパス (今後24時間)

TLE

古いSource: Space-Track

元期: Apr 22, 2019, 21:47 UTC

1 43542U 10007AB  19112.90799531  .00296730  00000-0  10612+0 0  9999
2 43542  65.0750  57.1741 5808681  34.0781 352.2383  4.29171947 13449

AllMySatでSL-12 DEBをリアルタイム追跡

Download on the App Store